{"data":{"norad_id":38107,"intl_designator":"2012-013A","name":"APSTAR-7","alt_names":[],"object_type":"PAYLOAD","status":"ACTIVE","operator":null,"country":"PRC","launch_date":"2012-03-31","launch_site_code":"XICLF","launch_vehicle":null,"mission":null,"orbit_class":"UNKNOWN","rcs_meters":0.003,"size_class":null,"mass_kg":null,"dimensions":null,"purposes":["comms"],"wikipedia_slug":null,"has_3d_model":false,"image_url":null,"decayed_at":null,"tle_current":{"epoch":"2026-09-20T01:53:15.021312Z","epoch_age_seconds":54778,"freshness":"FRESH","line1":"1 38107U 12013A   26263.07864608 -.00000106  00000+0  00000+0 0  9990","line2":"2 38107   0.0081 179.2107 0002620 352.3691 292.2315  1.00272159 52778","mean_motion":1.00272159,"eccentricity":0.000262,"inclination_deg":0.0081,"raan_deg":179.2107,"arg_perigee_deg":352.3691,"mean_anomaly_deg":292.2315,"bstar":0,"rev_number":5277,"period_min":1436.091547605,"perigee_km":35775.442983436,"apogee_km":35797.537248044,"semimajor_km":42164.62711574,"source":"CELESTRAK","updated_at":"2026-09-20T09:00:35.173687Z"}}}